| time (UTC) | temp F | wind direction | speed MPH | gust MPH | rain 1hr in | rain 24hr in | rain mn in | humidity % | barometer mb |
| 20260903161502 | 65 | 174 | 0.0 | 3.0 | 0.00 | 0.00 | 0.00 | 70 | 1006.3 |
| 20260903160059 | 64 | 163 | 0.0 | 2.0 | 0.00 | 0.00 | 0.00 | 70 | 1006.3 |
| 20260903154601 | 64 | 157 | 0.0 | 3.0 | 0.00 | 0.00 | 0.00 | 73 | 1006.4 |
| 20260903153112 | 63 | 127 | 0.0 | 3.0 | 0.00 | 0.00 | 0.00 | 74 | 1006.3 |
| 20260903151604 | 62 | 42 | 1.0 | 3.0 | 0.00 | 0.00 | 0.00 | 68 | 1006.3 |
| 20260903150104 | 61 | 43 | 2.0 | 4.0 | 0.00 | 0.00 | 0.00 | 58 | 1006.3 |
| 20260903144552 | 59 | 43 | 2.0 | 4.0 | 0.00 | 0.00 | 0.00 | 58 | 1006.3 |
| 20260903143059 | 58 | 45 | 1.0 | 3.0 | 0.00 | 0.00 | 0.00 | 61 | 1006.1 |
| 20260903141549 | 57 | 43 | 1.0 | 3.0 | 0.00 | 0.00 | 0.00 | 64 | 1006.1 |
| 20260903140047 | 56 | 44 | 1.0 | 3.0 | 0.00 | 0.00 | 0.00 | 64 | 1006.0 |
| 20260903134549 | 56 | 42 | 0.0 | 2.0 | 0.00 | 0.00 | 0.00 | 67 | 1005.9 |
| 20260903133044 | 55 | 44 | 1.0 | 3.0 | 0.00 | 0.00 | 0.00 | 70 | 1005.9 |
| 20260903131544 | 55 | 44 | 1.0 | 2.0 | 0.00 | 0.00 | 0.00 | 71 | 1006.0 |
| 20260903130043 | 55 | 47 | 1.0 | 3.0 | 0.00 | 0.00 | 0.00 | 72 | 1005.9 |
| 20260903124543 | 55 | 46 | 0.0 | 2.0 | 0.00 | 0.00 | 0.00 | 70 | 1005.9 |
| 20260903123041 | 55 | 46 | 1.0 | 2.0 | 0.00 | 0.00 | 0.00 | 70 | 1005.8 |
| 20260903121539 | 55 | 45 | 0.0 | 2.0 | 0.00 | 0.00 | 0.00 | 68 | 1005.9 |
| 20260903120041 | 56 | 46 | 1.0 | 2.0 | 0.00 | 0.00 | 0.00 | 70 | 1006.0 |
| 20260903114535 | 56 | 46 | 0.0 | 3.0 | 0.00 | 0.00 | 0.00 | 70 | 1006.0 |
| 20260903113034 | 56 | 46 | 2.0 | 3.0 | 0.00 | 0.00 | 0.00 | 67 | 1006.0 |
| 20260903111536 | 56 | 42 | 1.0 | 2.0 | 0.00 | 0.00 | 0.00 | 67 | 1006.0 |
| 20260903110031 | 57 | 42 | 0.0 | 2.0 | 0.00 | 0.00 | 0.00 | 63 | 1006.2 |
| 20260903104529 | 56 | 42 | 1.0 | 2.0 | 0.00 | 0.00 | 0.00 | 65 | 1006.2 |
| 20260903103026 | 57 | 43 | 0.0 | 2.0 | 0.00 | 0.00 | 0.00 | 63 | 1006.3 |
| 20260903101527 | 57 | 44 | 1.0 | 2.0 | 0.00 | 0.00 | 0.00 | 61 | 1006.3 |
| 20260903100021 | 58 | 44 | 1.0 | 3.0 | 0.00 | 0.00 | 0.00 | 59 | 1006.2 |
| 20260903094520 | 58 | 43 | 1.0 | 3.0 | 0.00 | 0.00 | 0.00 | 59 | 1006.2 |
| 20260903093020 | 59 | 44 | 1.0 | 2.0 | 0.00 | 0.00 | 0.00 | 56 | 1006.4 |
| 20260903091517 | 59 | 44 | 1.0 | 2.0 | 0.00 | 0.00 | 0.00 | 56 | 1006.6 |
| 20260903090017 | 60 | 45 | 2.0 | 3.0 | 0.00 | 0.00 | 0.00 | 56 | 1006.7 |
| 20260903084518 | 61 | 47 | 0.0 | 0.0 | 0.00 | 0.00 | 0.00 | 51 | 1006.7 |
| 20260903083006 | 61 | 42 | 1.0 | 3.0 | 0.00 | 0.00 | 0.00 | 50 | 1006.8 |
| 20260903081504 | 62 | 46 | 0.0 | 3.0 | 0.00 | 0.00 | 0.00 | 50 | 1006.9 |
| 20260903080003 | 64 | 44 | 1.0 | 3.0 | 0.00 | 0.00 | 0.00 | 47 | 1006.8 |
| 20260903074502 | 64 | 45 | 2.0 | 4.0 | 0.00 | 0.00 | 0.00 | 46 | 1006.9 |
| 20260903073058 | 64 | 38 | 1.0 | 3.0 | 0.00 | 0.00 | 0.00 | 48 | 1006.9 |
| 20260903071557 | 63 | 32 | 2.0 | 3.0 | 0.00 | 0.00 | 0.00 | 51 | 1006.9 |
| 20260903070053 | 63 | 44 | 1.0 | 3.0 | 0.00 | 0.00 | 0.00 | 52 | 1006.8 |
| 20260903064554 | 63 | 45 | 1.0 | 4.0 | 0.00 | 0.00 | 0.00 | 50 | 1006.8 |
| 20260903063053 | 63 | 38 | 1.0 | 4.0 | 0.00 | 0.00 | 0.00 | 50 | 1006.7 |
| 20260903061552 | 64 | 21 | 1.0 | 2.0 | 0.00 | 0.00 | 0.00 | 50 | 1006.6 |
| 20260903060051 | 64 | 12 | 0.0 | 4.0 | 0.00 | 0.00 | 0.00 | 49 | 1006.6 |
| 20260903054556 | 63 | 94 | 1.0 | 3.0 | 0.00 | 0.00 | 0.00 | 51 | 1006.6 |
| 20260903053049 | 63 | 154 | 1.0 | 2.0 | 0.00 | 0.00 | 0.00 | 53 | 1006.7 |
| 20260903051549 | 63 | 155 | 1.0 | 3.0 | 0.00 | 0.00 | 0.00 | 53 | 1006.8 |
| 20260903050049 | 63 | 156 | 0.0 | 3.0 | 0.00 | 0.00 | 0.00 | 52 | 1006.8 |
| 20260903044550 | 63 | 157 | 2.0 | 3.0 | 0.00 | 0.00 | 0.00 | 52 | 1006.8 |
| 20260903043049 | 64 | 160 | 1.0 | 3.0 | 0.00 | 0.00 | 0.00 | 52 | 1006.8 |
| 20260903041550 | 64 | 160 | 0.0 | 2.0 | 0.00 | 0.00 | 0.00 | 51 | 1006.6 |
| 20260903040048 | 65 | 160 | 1.0 | 3.0 | 0.00 | 0.00 | 0.00 | 49 | 1006.6 |
| 20260903034547 | 66 | 181 | 1.0 | 3.0 | 0.00 | 0.00 | 0.00 | 47 | 1006.5 |
| 20260903033046 | 67 | 182 | 1.0 | 3.0 | 0.00 | 0.00 | 0.00 | 45 | 1006.3 |
| 20260903031549 | 69 | 183 | 0.0 | 2.0 | 0.00 | 0.00 | 0.00 | 43 | 1006.2 |
| 20260903030045 | 71 | 183 | 0.0 | 2.0 | 0.00 | 0.00 | 0.00 | 41 | 1006.1 |
| 20260903024545 | 72 | 183 | 1.0 | 2.0 | 0.00 | 0.00 | 0.00 | 37 | 1006.0 |
| 20260903023044 | 74 | 183 | 0.0 | 2.0 | 0.00 | 0.00 | 0.00 | 36 | 1006.0 |
| 20260903021545 | 76 | 183 | 0.0 | 3.0 | 0.00 | 0.00 | 0.00 | 33 | 1005.9 |
| 20260903020100 | 76 | 182 | 2.0 | 5.0 | 0.00 | 0.00 | 0.00 | 33 | 1005.9 |
| 20260903014544 | 78 | 177 | 2.0 | 4.0 | 0.00 | 0.00 | 0.00 | 33 | 1005.9 |
| 20260903013043 | 79 | 173 | 2.0 | 5.0 | 0.00 | 0.00 | 0.00 | 34 | 1005.9 |
| 20260903011543 | 79 | 170 | 2.0 | 6.0 | 0.00 | 0.00 | 0.00 | 32 | 1005.9 |
| 20260903010043 | 79 | 178 | 2.0 | 8.0 | 0.00 | 0.00 | 0.00 | 30 | 1005.9 |
| 20260903004542 | 80 | 171 | 2.0 | 5.0 | 0.00 | 0.00 | 0.00 | 30 | 1005.8 |
| 20260903003043 | 81 | 196 | 2.0 | 9.0 | 0.00 | 0.00 | 0.00 | 34 | 1005.8 |
| 20260903001553 | 81 | 211 | 2.0 | 6.0 | 0.00 | 0.00 | 0.00 | 33 | 1005.8 |
| 20260903000041 | 82 | 209 | 3.0 | 7.0 | 0.00 | 0.00 | 0.00 | 32 | 1005.8 |
| 20260902234534 | 82 | 167 | 4.0 | 9.0 | 0.00 | 0.00 | 0.00 | 31 | 1005.8 |
| 20260902233035 | 82 | 184 | 4.0 | 8.0 | 0.00 | 0.00 | 0.00 | 28 | 1005.9 |
| 20260902231535 | 82 | 178 | 4.0 | 8.0 | 0.00 | 0.00 | 0.00 | 33 | 1005.8 |
| 20260902230030 | 83 | 206 | 4.0 | 9.0 | 0.00 | 0.00 | 0.00 | 34 | 1005.8 |
| 20260902224528 | 82 | 193 | 2.0 | 9.0 | 0.00 | 0.00 | 0.00 | 37 | 1006.0 |
| 20260902223026 | 83 | 174 | 3.0 | 9.0 | 0.00 | 0.00 | 0.00 | 35 | 1006.2 |
| 20260902221539 | 83 | 188 | 4.0 | 11.0 | 0.00 | 0.00 | 0.00 | 35 | 1006.3 |
| 20260902220025 | 83 | 221 | 4.0 | 9.0 | 0.00 | 0.00 | 0.00 | 35 | 1006.4 |
| 20260902214521 | 83 | 197 | 2.0 | 8.0 | 0.00 | 0.00 | 0.00 | 34 | 1006.6 |
| 20260902213020 | 82 | 196 | 3.0 | 11.0 | 0.00 | 0.00 | 0.00 | 35 | 1006.7 |
| 20260902211517 | 82 | 176 | 3.0 | 10.0 | 0.00 | 0.00 | 0.00 | 35 | 1006.9 |
| 20260902210014 | 81 | 159 | 5.0 | 9.0 | 0.00 | 0.00 | 0.00 | 37 | 1007.1 |
| 20260902204514 | 81 | 171 | 4.0 | 8.0 | 0.00 | 0.00 | 0.00 | 37 | 1007.1 |
| 20260902203011 | 81 | 186 | 1.0 | 10.0 | 0.00 | 0.00 | 0.00 | 36 | 1007.2 |
| 20260902201506 | 80 | 189 | 3.0 | 8.0 | 0.00 | 0.00 | 0.00 | 37 | 1007.4 |
| 20260902200005 | 80 | 221 | 5.0 | 9.0 | 0.00 | 0.00 | 0.00 | 39 | 1007.6 |
| 20260902194503 | 80 | 172 | 1.0 | 7.0 | 0.00 | 0.00 | 0.00 | 40 | 1007.8 |
| 20260902193101 | 79 | 192 | 2.0 | 6.0 | 0.00 | 0.00 | 0.00 | 38 | 1007.9 |
| 20260902191604 | 78 | 207 | 1.0 | 9.0 | 0.00 | 0.00 | 0.00 | 40 | 1007.9 |
| 20260902190055 | 78 | 196 | 3.0 | 5.0 | 0.00 | 0.00 | 0.00 | 43 | 1008.1 |
| 20260902184553 | 77 | 178 | 3.0 | 8.0 | 0.00 | 0.00 | 0.00 | 44 | 1008.3 |
| 20260902183116 | 76 | 198 | 3.0 | 7.0 | 0.00 | 0.00 | 0.00 | 46 | 1008.3 |
| 20260902181544 | 75 | 210 | 1.0 | 7.0 | 0.00 | 0.00 | 0.00 | 49 | 1008.3 |
| 20260902180041 | 74 | 196 | 3.0 | 8.0 | 0.00 | 0.00 | 0.00 | 50 | 1008.2 |
| 20260902174538 | 72 | 219 | 2.0 | 5.0 | 0.00 | 0.00 | 0.00 | 51 | 1008.3 |
| 20260902173049 | 71 | 270 | 3.0 | 9.0 | 0.00 | 0.00 | 0.00 | 53 | 1008.3 |
| 20260902171530 | 70 | 230 | 1.0 | 5.0 | 0.00 | 0.00 | 0.00 | 55 | 1008.4 |
| 20260902170028 | 70 | 202 | 1.0 | 5.0 | 0.00 | 0.00 | 0.00 | 55 | 1008.2 |
| 20260902164524 | 69 | 212 | 2.0 | 6.0 | 0.00 | 0.00 | 0.00 | 54 | 1008.0 |
| 20260902163022 | 68 | 198 | 1.0 | 5.0 | 0.00 | 0.00 | 0.00 | 53 | 1008.1 |